TimeEST,TemperatureF,Dew PointF,Humidity,Sea Level PressureIn,VisibilityMPH,Wind Direction,Wind SpeedMPH,Gust SpeedMPH,PrecipitationIn,Events,Conditions,WindDirDegrees,DateUTC
12:54 AM,19.0,10.9,71,29.73,10.0,WNW,9.2,-,N/A,,Partly Cloudy,290,2013-02-04 05:54:00
1:54 AM,17.1,9.0,71,29.74,10.0,West,6.9,-,N/A,,Clear,270,2013-02-04 06:54:00
2:54 AM,19.0,9.0,65,29.72,10.0,WNW,11.5,-,N/A,,Clear,290,2013-02-04 07:54:00
3:54 AM,19.0,10.0,68,29.72,10.0,West,9.2,-,N/A,,Mostly Cloudy,280,2013-02-04 08:54:00
5:54 AM,16.0,10.0,77,29.75,10.0,West,10.4,-,N/A,,Clear,270,2013-02-04 10:54:00
6:54 AM,16.0,10.9,81,29.77,10.0,West,9.2,-,N/A,,Clear,260,2013-02-04 11:54:00
7:54 AM,18.0,12.0,78,29.79,10.0,West,12.7,23.0,N/A,,Clear,270,2013-02-04 12:54:00
8:54 AM,19.9,10.0,65,29.79,10.0,West,16.1,20.7,N/A,,Clear,270,2013-02-04 13:54:00
9:54 AM,21.9,8.1,55,29.79,10.0,WNW,18.4,27.6,N/A,,Partly Cloudy,290,2013-02-04 14:54:00
10:54 AM,21.9,5.0,48,29.80,10.0,WNW,20.7,32.2,N/A,,Partly Cloudy,290,2013-02-04 15:54:00
11:54 AM,21.9,7.0,53,29.80,10.0,WSW,17.3,31.1,N/A,,Overcast,250,2013-02-04 16:54:00
12:54 PM,24.1,9.0,53,29.78,10.0,West,17.3,23.0,0.00,,Overcast,260,2013-02-04 17:54:00
1:54 PM,23.0,3.9,44,29.78,10.0,West,17.3,29.9,0.00,,Mostly Cloudy,280,2013-02-04 18:54:00
2:54 PM,24.1,3.0,40,29.80,10.0,West,15.0,27.6,N/A,,Mostly Cloudy,270,2013-02-04 19:54:00
3:54 PM,24.1,5.0,44,29.80,10.0,West,20.7,28.8,N/A,,Overcast,280,2013-02-04 20:54:00
4:54 PM,21.0,8.1,57,29.82,10.0,WNW,17.3,24.2,N/A,,Partly Cloudy,290,2013-02-04 21:54:00
5:54 PM,21.0,6.1,53,29.84,10.0,West,19.6,26.5,N/A,,Clear,270,2013-02-04 22:54:00
6:54 PM,19.9,6.1,55,29.87,10.0,West,17.3,24.2,N/A,,Clear,280,2013-02-04 23:54:00
7:54 PM,19.0,7.0,59,29.88,10.0,West,13.8,23.0,N/A,,Clear,280,2013-02-05 00:54:00
8:54 PM,18.0,7.0,62,29.90,10.0,West,11.5,20.7,N/A,,Clear,260,2013-02-05 01:54:00
9:54 PM,17.1,7.0,65,29.90,10.0,West,10.4,-,N/A,,Clear,260,2013-02-05 02:54:00
10:54 PM,17.1,6.1,62,29.91,10.0,West,10.4,-,N/A,,Mostly Cloudy,270,2013-02-05 03:54:00
11:54 PM,17.1,6.1,62,29.93,10.0,West,10.4,-,N/A,,Overcast,260,2013-02-05 04:54:00